TimeMDT,TemperatureF,Dew PointF,Humidity,Sea Level PressureIn,VisibilityMPH,Wind Direction,Wind SpeedMPH,Gust SpeedMPH,PrecipitationIn,Events,Conditions,WindDirDegrees,DateUTC
12:58 AM,54.1,44.4,70,29.95,10.0,WNW,10.4,-,N/A,,Overcast,290,2013-05-18 06:58:00
1:58 AM,52.2,44.4,75,29.94,10.0,WNW,11.5,-,N/A,,Scattered Clouds,290,2013-05-18 07:58:00
2:58 AM,50.4,43.2,76,29.95,10.0,WNW,10.4,-,N/A,,Scattered Clouds,300,2013-05-18 08:58:00
3:58 AM,48.2,42.3,80,29.96,10.0,NW,10.4,-,N/A,,Clear,310,2013-05-18 09:58:00
4:58 AM,47.1,41.9,82,29.96,10.0,WNW,13.8,-,N/A,,Clear,300,2013-05-18 10:58:00
5:58 AM,47.3,41.7,81,29.96,10.0,NW,10.4,-,N/A,,Mostly Cloudy,320,2013-05-18 11:58:00
6:58 AM,47.1,40.8,79,30.00,10.0,NW,12.7,-,N/A,,Scattered Clouds,310,2013-05-18 12:58:00
7:58 AM,51.1,40.6,67,30.00,10.0,NW,18.4,-,N/A,,Scattered Clouds,320,2013-05-18 13:58:00
8:58 AM,53.6,40.5,61,30.03,10.0,NW,15.0,-,N/A,,Overcast,320,2013-05-18 14:58:00
9:03 AM,53.6,41.0,62,30.05,10.0,NW,15.0,-,N/A,Rain,Light Rain,320,2013-05-18 15:03:00
9:23 AM,53.6,41.0,62,30.05,10.0,NW,13.8,-,N/A,,Overcast,310,2013-05-18 15:23:00
9:58 AM,55.0,39.7,56,30.03,10.0,NW,16.1,-,0.00,,Mostly Cloudy,320,2013-05-18 15:58:00
10:58 AM,61.5,36.7,40,30.01,10.0,NW,18.4,24.2,N/A,,Clear,310,2013-05-18 16:58:00
11:58 AM,63.1,35.6,36,30.00,10.0,NW,23.0,27.6,N/A,,Scattered Clouds,320,2013-05-18 17:58:00
12:45 PM,64.4,33.8,32,30.03,10.0,NNW,13.8,24.2,N/A,,Partly Cloudy,330,2013-05-18 18:45:00
12:58 PM,64.4,33.8,32,30.00,10.0,NW,20.7,24.2,N/A,,Mostly Cloudy,310,2013-05-18 18:58:00
1:05 PM,64.4,32.0,30,30.03,10.0,WNW,12.7,24.2,N/A,,Scattered Clouds,290,2013-05-18 19:05:00
1:10 PM,64.4,32.0,30,30.03,10.0,NW,18.4,24.2,N/A,,Mostly Cloudy,310,2013-05-18 19:10:00
1:30 PM,64.4,32.0,30,30.03,10.0,WNW,13.8,24.2,N/A,,Mostly Cloudy,300,2013-05-18 19:30:00
1:35 PM,64.4,32.0,30,30.03,10.0,WNW,19.6,25.3,N/A,,Overcast,300,2013-05-18 19:35:00
1:58 PM,64.4,33.1,31,29.99,10.0,NNW,9.2,25.3,N/A,,Mostly Cloudy,330,2013-05-18 19:58:00
2:08 PM,64.4,32.0,30,30.02,10.0,NW,16.1,23.0,N/A,,Mostly Cloudy,320,2013-05-18 20:08:00
2:15 PM,66.2,33.8,30,30.02,10.0,WNW,19.6,27.6,N/A,,Mostly Cloudy,290,2013-05-18 20:15:00
2:20 PM,66.2,32.0,28,30.02,10.0,WNW,13.8,27.6,N/A,,Scattered Clouds,290,2013-05-18 20:20:00
2:22 PM,66.2,32.0,28,30.02,10.0,West,11.5,27.6,N/A,,Scattered Clouds,270,2013-05-18 20:22:00
2:38 PM,66.2,32.0,28,30.02,10.0,West,13.8,23.0,N/A,,Scattered Clouds,260,2013-05-18 20:38:00
2:41 PM,66.2,32.0,28,30.01,10.0,WNW,18.4,23.0,N/A,,Partly Cloudy,300,2013-05-18 20:41:00
2:42 PM,66.2,32.0,28,30.01,10.0,NW,18.4,23.0,N/A,,Partly Cloudy,310,2013-05-18 20:42:00
2:58 PM,67.1,32.4,28,-9999,10.0,WNW,18.4,26.5,N/A,,Partly Cloudy,300,2013-05-18 20:58:00
3:33 PM,66.2,32.0,28,30.01,10.0,NW,17.3,25.3,N/A,,Mostly Cloudy,320,2013-05-18 21:33:00
3:38 PM,66.2,32.0,28,30.01,10.0,NNW,16.1,26.5,N/A,,Scattered Clouds,330,2013-05-18 21:38:00
3:58 PM,67.8,33.1,28,29.97,10.0,WNW,17.3,-,N/A,,Scattered Clouds,300,2013-05-18 21:58:00
4:58 PM,67.6,32.5,27,29.97,10.0,NW,18.4,27.6,N/A,,Mostly Cloudy,310,2013-05-18 22:58:00
5:18 PM,69.8,32.0,25,29.98,10.0,NNW,23.0,28.8,N/A,,Mostly Cloudy,330,2013-05-18 23:18:00
5:58 PM,68.7,31.8,25,29.96,10.0,NW,13.8,24.2,N/A,,Clear,310,2013-05-18 23:58:00
6:58 PM,67.8,31.1,26,29.96,10.0,NW,20.7,28.8,N/A,,Clear,320,2013-05-19 00:58:00
7:58 PM,65.7,31.1,27,29.97,10.0,NW,18.4,-,N/A,,Overcast,310,2013-05-19 01:58:00
8:58 PM,63.9,31.3,29,29.98,10.0,NNW,13.8,-,N/A,,Mostly Cloudy,330,2013-05-19 02:58:00
9:58 PM,61.2,30.4,31,29.99,10.0,NW,11.5,-,N/A,,Clear,320,2013-05-19 03:58:00
10:58 PM,55.4,30.9,39,30.00,10.0,NW,10.4,-,N/A,,Scattered Clouds,310,2013-05-19 04:58:00
11:58 PM,56.5,35.6,46,30.01,10.0,NW,16.1,-,N/A,,Scattered Clouds,310,2013-05-19 05:58:00